1491754479.5537522, 0.11070339487251381, -0.068424839253392045, 0.97692534076133586, -0.98721385724510458, -0.022717009165978561, 0.04128404413217885, 0.15227726441556283
1491754479.6169147, 0.10232230406497084, -0.086411432653224721, 0.96701122655579619, -0.98598343938472677, -0.021884322894596735, 0.037752259999727963, 0.16103571198781563
1491754479.7170968, 0.099275191540639018, -0.084642365392744279, 0.9581865451118351, -0.98640383357443662, -0.022743623613581513, 0.038107088640316159, 0.15823417611229879
1491754479.7505853, 0.098974894209679892, -0.077171898087614488, 0.95624639127475097, -0.98704386369928043, -0.023243399341728553, 0.037553402684102302, 0.15425270651590808
1491754479.78391, 0.10446716070176784, -0.074824702484030892, 0.95275899740736947, -0.98699373552188252, -0.0226915505945142, 0.03925679981134602, 0.15423152479551105
1491754479.8174181, 0.10205957632492166, -0.057986409863963959, 0.95465761682731143, -0.9881226315546392, -0.021420458978390351, 0.037546173301744375, 0.14746224539550856
1491754479.8508878, 0.11653727576146999, -0.060890218723928802, 0.94890147328920371, -0.98737995593296268, -0.023276711789051975, 0.043356502469998476, 0.15052983426443828
1491754479.8844039, 0.11879547446335864, -0.066604561082720143, 0.94479718001936197, -0.98675183154119739, -0.023690597190971434, 0.0428343897247783, 0.15467641582262373
1491754479.91783, 0.097192639319101548, -0.067210284181386429, 0.93597252666468156, -0.98700556462021571, -0.026063866850409772, 0.030564697881824889, 0.15558434849600433
1491754479.9512708, 0.11144783912036381, -0.073782281202457903, 0.92877067269440139, -0.98619865024010422, -0.025963374460938257, 0.036950580822340456, 0.15928835496698868
1491754479.9845519, 0.10960216610283363, -0.065689988066723118, 0.92760284505861257, -0.98681485610128683, -0.025132708580518439, 0.036138827427382787, 0.15575227731682437
1491754480.0180678, 0.11321902515245477, -0.065068153485903724, 0.92229802673482586, -0.98667557195754352, -0.023442430936307872, 0.037756274133838821, 0.1565127212004867
1491754480.0515838, 0.099829444036691806, -0.08094752358764018, 0.90778029580673392, -0.98554166109469021, -0.022981466947064794, 0.030354986705656284, 0.1651001550749695
1491754480.0850329, 0.098130333578783646, -0.080471065046556045, 0.90328351990807332, -0.98577757218739082, -0.021040214081100919, 0.030714300662690725, 0.16387958780323034
1491754480.1184819, 0.10312207003974806, -0.066778738172080299, 0.90466679972641317, -0.98709534849770775, -0.018227972287765716, 0.033880321812809068, 0.15544335879774901
1491754480.1519439, 0.1123003948131655, -0.088980036453132433, 0.89210185851543355, -0.98537959306550771, -0.017811891364951826, 0.038213032542125554, 0.16507440213428676
1491754480.1854599, 0.10701705862530969, -0.097534192733569447, 0.88241228498923729, -0.98520200264012658, -0.017415674692247467, 0.035951202814644145, 0.16667699086879978
1491754480.2189722, 0.097584805333067015, -0.085749603896596138, 0.87250393594351183, -0.98642146381277074, -0.018586253085382334, 0.032245605867815344, 0.15996083216817242
1491754480.252492, 0.10139008980881262, -0.080534235490997308, 0.86978110520003948, -0.98668859369519524, -0.01984486013441504, 0.035794160213366996, 0.15738671701469345
1491754480.2860079, 0.10358253958043893, -0.077420539522557286, 0.86486198857721197, -0.98690240994800027, -0.020271966167624965, 0.0368555801206054, 0.15573807126230024
1491754480.3195238, 0.10918245562800138, -0.068887861749073742, 0.8632892326317495, -0.98771110327300282, -0.018630365698466531, 0.040039493122517082, 0.14992172936456152
1491754480.35304, 0.10633830584182485, -0.07727724718929363, 0.85124716935681222, -0.98703672483036564, -0.020296769968119851, 0.037838626648661104, 0.15464405354991695
1491754480.3865521, 0.11115703507866888, -0.072657005150925422, 0.84695355115024817, -0.98726523783112252, -0.018260112843579035, 0.040172103574389648, 0.1528401797421256
1491754480.4200718, 0.11969163935925993, -0.08135560314006679, 0.83852552119222679, -0.98642332049969206, -0.01771638988056868, 0.043958435008362579, 0.15723491436566223
1491754480.4536419, 0.10846060829493885, -0.070382630905129862, 0.83378260968844298, -0.98790399382957761, -0.017849092620043132, 0.036377399025632029, 0.14967896882441775
1491754480.487294, 0.098663149419534996, -0.064945406704258912, 0.82603034207584614, -0.98850290893307391, -0.017972608328638173, 0.029727244142131171, 0.1471573149266811
1491754480.5208399, 0.12109256636020196, -0.074451630594660895, 0.81832992308695451, -0.98707452158330977, -0.018334001938383929, 0.041614059511805163, 0.15367505739368187
1491754480.5543561, 0.10121463943302153, -0.074274077740041078, 0.80831074307242812, -0.98757565195275276, -0.018537806211353976, 0.028706427661290487, 0.15338390535480778
1491754480.587872, 0.10613909268065203, -0.06735969745992243, 0.80382523099239123, -0.98804981150692006, -0.019483327387006109, 0.031547816892143657, 0.14960850639054613
1491754480.621388, 0.10393601373031081, -0.061574622082350206, 0.79891299336570021, -0.98829808632185412, -0.019490259907987244, 0.03135874863155208, 0.14799882170322562
1491754480.6549289, 0.10259866954536377, -0.062798004576238714, 0.79460016354121854, -0.98795781482938327, -0.023016959214282928, 0.030017538475681876, 0.15002840760982225
1491754480.6886849, 0.12043434492212113, -0.066212033052375552, 0.787350592023082, -0.98710838368697884, -0.022391554964179002, 0.039032961226180732, 0.15359715185862591
1491754480.722266, 0.10889422298448884, -0.061836557668331835, 0.78235930420884714, -0.98767502132381269, -0.018920900704049035, 0.03175529871288834, 0.15209093586801542
1491754480.7557819, 0.10534505298222763, -0.056339388964882865, 0.78024458543312314, -0.98814908970954896, -0.018015017388399709, 0.031476622939598201, 0.14915112424317753
1491754480.7892981, 0.10674750129212957, -0.066530118817973466, 0.77121024279143002, -0.98723329116502834, -0.021146805326063386, 0.032122244933880419, 0.15456844057043359
1491754480.822814, 0.10921648324629196, -0.054730822830056321, 0.76963165867177108, -0.98865231486739236, -0.018410918244620062, 0.032298214455490019, 0.14554883627059212
1491754480.8563299, 0.10867535857147329, -0.059577167824988508, 0.76217638868146698, -0.98827989765881541, -0.019179881358085071, 0.031544469621655025, 0.14812130998225548
1491754480.889848, 0.1144432331885446, -0.052964682787599193, 0.76101037567785057, -0.98882581316373219, -0.019294801277547111, 0.035692727796965487, 0.14344772932031902
1491754480.9233642, 0.10919593868989556, -0.050169331274568685, 0.75435924934687404, -0.98913398083713933, -0.019756441321483253, 0.030489049091525729, 0.14245725276404428
1491754480.9569402, 0.11660822619303768, -0.042556926122757022, 0.75368758810868297, -0.98952746551853854, -0.01914645227821038, 0.032991716327614468, 0.13921334348177244
1491754480.9904819, 0.11333270462251736, -0.040951184346261105, 0.74900011605831651, -0.989777234267463, -0.019735010396226282, 0.027879128010058422, 0.13847133317734509
1491754481.024039, 0.11385200222630723, -0.048125374000564006, 0.73848702100388075, -0.98912539555150181, -0.021141239362431202, 0.025087576170836103, 0.14336880202881583
1491754481.057514, 0.10953551594958832, -0.050975794678713895, 0.73011441439655056, -0.98897433799795276, -0.020779005908561483, 0.020481152041991232, 0.14518441412905161
1491754481.0910299, 0.10082329091398126, -0.054120225787089693, 0.72271059450890329, -0.98895664430894759, -0.020916390856189553, 0.014435339759846002, 0.14600986691574891
1491754481.1245871, 0.11062831358985328, -0.047996028219473165, 0.7245079569910472, -0.98971090535462769, -0.022037742941411604, 0.020404044203838553, 0.13989401948725078
1491754481.158103, 0.1180277181410139, -0.048365664559291976, 0.71854463074707853, -0.98962396202867098, -0.021264686125795879, 0.023656804645687365, 0.14011631773852318
1491754481.1916189, 0.10788174363346512, -0.041918837997955816, 0.71636345048689021, -0.99042475841355404, -0.0222147974060448, 0.016128455069740342, 0.13529661353753358
1491754481.2250681, 0.11886140027204084, -0.034272614315013883, 0.71644783683496416, -0.99089526511186155, -0.025209489366126377, 0.022201324065563761, 0.13037697816151653
1491754481.2585843, 0.11917653290366392, -0.036657531054516884, 0.71071241687076736, -0.99049808945266959, -0.024604885418840632, 0.019523549663272646, 0.13389161815693637
1491754481.291904, 0.11291729057917421, -0.030250759972175634, 0.71151719605897334, -0.9909819872227521, -0.025262089276517019, 0.013106565292914093, 0.13093794633968059
1491754481.3254199, 0.12459823607749454, -0.042511858236281841, 0.70427334783585904, -0.98949686742638576, -0.024983093802680986, 0.017883273252082475, 0.14125148818758429
1491754481.3588941, 0.11581744396632655, -0.027448775092666741, 0.70802355977842513, -0.99108649708767504, -0.020673182437556194, 0.010144833163523924, 0.13121454636765606
1491754481.39241, 0.11013970245807553, -0.028426046195509785, 0.70189191444718468, -0.99073329886081096, -0.019083532522785208, 0.0055762116058502148, 0.13435868107031174
1491754481.4259231, 0.11369847201503666, -0.025771798434517532, 0.70479784088722663, -0.99066385299707282, -0.018190974514703757, 0.010024516895417614, 0.13473577057416142
1491754481.4594331, 0.11089212675533111, -0.020215099023146277, 0.70572443651480454, -0.99100861071346646, -0.016778105356341125, 0.0084434935751106378, 0.13247315233157195
1491754481.4929371, 0.10779018985329733, -0.021232798528722334, 0.70388324363652544, -0.99053896616118187, -0.017214920180224871, 0.0066481190900398307, 0.13598531373677883
1491754481.5263851, 0.10878675340215657, -0.024630159441983324, 0.70444092564768879, -0.98990452744660729, -0.017134450834523567, 0.0084773052072785442, 0.14044063668230453
1491754481.559901, 0.11034568500557437, -0.027464379414607686, 0.70873991815321813, -0.9895128026507849, -0.017956910188968236, 0.011023617112016406, 0.1429001141791765
1491754481.5933132, 0.11074269184779317, -0.02820522443289027, 0.71063168793800657, -0.98949563158399811, -0.017866921908647686, 0.012418116190863937, 0.14291591432714981
1491754481.6268291, 0.098751026326902969, -0.021852227299237637, 0.71222779230158462, -0.99005482872005202, -0.019434576273261506, 0.0070649085491791188, 0.13915394511252235
1491754481.660449, 0.099335473078268205, -0.01512974156376129, 0.71953352991906583, -0.99050564519250572, -0.022848579797225287, 0.01077906900590243, 0.13513075487983378
1491754481.6938612, 0.10586711797410435, -0.016001945414083479, 0.72568310118765789, -0.99023600458658467, -0.024075365649230452, 0.015597936447714761, 0.13641750755612844
1491754481.727361, 0.10151599439026024, -0.0068401274202083417, 0.73202463836868714, -0.9907809335213672, -0.022554904952322506, 0.013071673586989607, 0.13294190228349659
1491754481.7608931, 0.096207565017210742, -0.0070699367144470282, 0.73344805034330707, -0.99007743017719729, -0.023201457099006329, 0.011525877026390652, 0.138114187544121
1491754481.794409, 0.10141950793493097, -0.00095492583163742095, 0.74767641500476678, -0.99034344759167314, -0.023456884956589114, 0.018325348041831776, 0.1354024075839052
1491754481.827909, 0.10802034608570701, 0.003784765715623209, 0.75557361311469529, -0.99070042992246188, -0.024408753700542275, 0.023112514052508845, 0.13184340176287987
1491754481.8614249, 0.10374632911207099, -0.010830554382976199, 0.75332065257656433, -0.98959755476635669, -0.025220624307972481, 0.020322171767236719, 0.14016992917393772
1491754481.8949277, 0.097618286031534329, -0.0025305025663494504, 0.7614029355594476, -0.99052114912538691, -0.027457898198850465, 0.018104635397508836, 0.13336468475180299
1491754481.9284439, 0.11097534526005626, 0.00063180139218918518, 0.76800768440419476, -0.99055107536742693, -0.030491402775785298, 0.027082407327763187, 0.13094038589576568
1491754481.961946, 0.11418059575746953, 0.006412879092427326, 0.77331993340654503, -0.99092930349931663, -0.032320312667763307, 0.027369278371006348, 0.12753601631252071
1491754481.9954557, 0.11405338244758745, 0.01077935142214137, 0.78339678269053747, -0.99127747338234884, -0.033315361838915321, 0.026022945747382453, 0.12482733564759621
1491754482.0289717, 0.10727827905100389, 0.0107623774391849, 0.78521204423377811, -0.99136238854405134, -0.034216748580691132, 0.02118894587327616, 0.12482330419268162
1491754482.0624878, 0.11126884602003846, 0.02889391589788802, 0.79497711293198936, -0.99256171200509669, -0.03543299846249183, 0.023494569942216742, 0.1140778491412708
1491754482.1295197, 0.11952732086112375, 0.044093597028043607, 0.80659169189934077, -0.99285809835057459, -0.036362449603322938, 0.02486245270350999, 0.11087121918736267
1491754482.16295, 0.10961073641827843, 0.043496316445144456, 0.81289925118948314, -0.99295371273718935, -0.037701806001932084, 0.016680554764009023, 0.11110021277382291
1491754482.1964011, 0.10917510428029797, 0.063269512345661166, 0.81778379031340265, -0.99410055913085404, -0.037782592582760947, 0.013567846700787162, 0.10075945399491119
1491754482.229917, 0.1225953679531768, 0.063809277210693877, 0.82033939155946589, -0.99355131844736555, -0.041544405358707452, 0.018739490132389409, 0.10382038096862836
1491754482.263423, 0.1363560644788577, 0.05628349821363568, 0.82378494903398669, -0.99267293453420102, -0.043128441969685655, 0.024113202801933246, 0.11026756543588917
1491754482.2969151, 0.12281857043357028, 0.069822666466366701, 0.83373094775947221, -0.99388245904723105, -0.041302617596086985, 0.01337062818646908, 0.10155283196366045
1491754482.3304551, 0.12714340060916818, 0.068981173094932915, 0.83440779923936803, -0.9937830956177085, -0.040656867698254488, 0.013932097388350346, 0.10270381996699329
1491754482.363971, 0.11384889755645936, 0.07816492780851747, 0.83805486070540414, -0.99420107689749959, -0.042715763993432278, 0.0056526236281945136, 0.098527306105603049
1491754482.3974872, 0.1337333477853837, 0.088177387817917549, 0.84693727331023816, -0.99446440039811301, -0.043635942781461337, 0.016200933478264814, 0.094201860877731386
1491754482.430979, 0.1083728242706989, 0.094616007343574005, 0.84811973577806976, -0.99489198902286236, -0.044325313189799903, 0.00077817900061510903, 0.090689532065183237
1491754482.464519, 0.12864383233880677, 0.10796580042817376, 0.8552459866269243, -0.99531592571600214, -0.046078836972950087, 0.012964381479234814, 0.083993295042989982
1491754482.4980352, 0.1205775174803089, 0.10015519632648404, 0.86141938501514614, -0.99486649811279015, -0.049994857466622369, 0.008910278008660585, 0.087531549200813186
1491754482.5315511, 0.11290894398180348, 0.10822777307146272, 0.86293000105661744, -0.99524434785812588, -0.052968075434594163, 0.0043578116192059639, 0.081633819701764962
1491754482.5650671, 0.11470832225838233, 0.1178312654276121, 0.86701849100879846, -0.99559173062349526, -0.055723756980386278, 0.0060397652843017123, 0.07520299234348897
1491754482.5985579, 0.11384470371866984, 0.10719905932681856, 0.86949420481808104, -0.99505518695595352, -0.057663836065967734, 0.005225565194941096, 0.080701613308551162
1491754482.631923, 0.10613357591886424, 0.11005535446857728, 0.86955831763087776, -0.99529417256431241, -0.057937881699743107, 0.0020701964609128798, 0.077642940505114236
1491754482.665561, 0.11716786242613925, 0.11683062889005985, 0.87485587557410049, -0.99560402084340238, -0.059424359023867813, 0.0096993897409364035, 0.07174469369720432
1491754482.6990769, 0.10575650802987013, 0.1189870631680829, 0.87494101173867855, -0.99599004772064015, -0.058096658794779696, 0.0042348549744227922, 0.067901907791059257
1491754482.7325931, 0.12818250204857659, 0.12250439569175367, 0.87938398786690219, -0.99623500696077816, -0.054976252143744693, 0.017722879189862688, 0.064647677137756446
1491754482.766109, 0.11764478662578912, 0.12695857750203604, 0.88132832852078691, -0.9965111403751189, -0.056588917299919078, 0.01362080044119849, 0.059814006239709512
1491754482.7996249, 0.10809987612819524, 0.14468192352706225, 0.88012363214072176, -0.99703605616078461, -0.058840736509781298, 0.0095138733224084341, 0.048645212063886729
1491754482.8331409, 0.12299079592877941, 0.13988550689204327, 0.88316952718977615, -0.99669068481082179, -0.060488087459399494, 0.017140091046713012, 0.051527539876744959
1491754482.866657, 0.12635796317512274, 0.13654914209948676, 0.88394299332094228, -0.9964545560628334, -0.062954769872942004, 0.018935355739712383, 0.052502066196265483
1491754482.900202, 0.13203603039722511, 0.14823766179128101, 0.88616543331454078, -0.99676810114284631, -0.061320410911755753, 0.023812249839555225, 0.046110047790871807
1491754482.933718, 0.10590664009866978, 0.15527378046934409, 0.88316643509672066, -0.99717162904060697, -0.061269045139998493, 0.011474485052977655, 0.041990267168760184
1491754482.967205, 0.12130499247587494, 0.13515870815316153, 0.88324823104863737, -0.9966081332500335, -0.058415704635867052, 0.02097425777498441, 0.054036235088754311
1491754483.0007501, 0.10217040776020023, 0.14473813604852911, 0.88526361883147575, -0.99728714986549305, -0.054195897763626502, 0.014198428604624771, 0.047744633247260908
1491754483.0342369, 0.12320574643053017, 0.14544312499242157, 0.89149671944711295, -0.99709389610359545, -0.052514888261543963, 0.02977607293460582, 0.046468638288878671
1491754483.0677531, 0.12335363266749541, 0.14762519987017514, 0.89172606752411598, -0.99706141297907358, -0.053308347977162503, 0.0328837547612102, 0.044106886728985835
1491754483.1013041, 0.11706999418257559, 0.17326334714315567, 0.89132474461918332, -0.99769641166822198, -0.052382099225922185, 0.032177980653535568, 0.02868036586412237
1491754483.1349981, 0.13283269123932065, 0.15102087627829852, 0.89450582349797225, -0.99685011087791697, -0.053410365497136431, 0.042208156237744252, 0.040689812572155634
1491754483.1685648, 0.10601170700426538, 0.17464241394011198, 0.89148622736485894, -0.99778339796251836, -0.053376888124499138, 0.028807352899438695, 0.027373983696982337
1491754483.2020302, 0.11792280030735597, 0.18498726271309679, 0.89249174480022697, -0.99770359821117327, -0.052754339730062688, 0.035638695100962001, 0.023116945464819471
1491754483.235575, 0.1216404726501856, 0.17829554279162582, 0.89552594643451466, -0.99754744676340723, -0.051677292348036918, 0.037453252343445445, 0.028736784793727311
1491754483.269062, 0.12025003042836506, 0.19817456254744237, 0.89713886505135254, -0.9977900668616535, -0.051637990562902705, 0.036953724040428924, 0.019568410318323411
1491754483.3026071, 0.10380351654358627, 0.18686122445275441, 0.89463295111278074, -0.99792254821187543, -0.051678190064963041, 0.027198779314800008, 0.027206228068431482
1491754483.3696389, 0.11199166574249063, 0.21182640905433153, 0.89723974830673647, -0.99814288835742415, -0.050238533385600539, 0.027277238238412212, 0.021043204576477736
1491754483.4031549, 0.10067316611774252, 0.21744118942953142, 0.89419591106215113, -0.99825801901148625, -0.052579776416014523, 0.018536211433420487, 0.019305529182088953
1491754483.436671, 0.11673367365183257, 0.22620055173070877, 0.90066283956798054, -0.99815203404105168, -0.052860408459711405, 0.025178276860258218, 0.016258798588203002
1491754483.4701869, 0.11690186376857198, 0.20679438514652648, 0.90185427831398424, -0.99779496313299454, -0.055729181702144803, 0.022448100530627516, 0.028205542643286983
1491754483.5034959, 0.12088284732985066, 0.21088206966710024, 0.90450085995169383, -0.99770987936412059, -0.057010047079456193, 0.023099702405794786, 0.028129253456035792
1491754483.5370121, 0.12362853505608987, 0.21763132776870872, 0.90736547250854027, -0.99771173011162761, -0.057761305110350186, 0.024435579656014023, 0.025255448451496569
1491754483.570528, 0.11883850169591753, 0.23208658089524736, 0.90655866681812669, -0.99792371569832994, -0.057834198002337606, 0.022806891101043891, 0.016831782631981464
1491754483.6040921, 0.11399640508423484, 0.23027530172257421, 0.9082690411839458, -0.99784957773733041, -0.058980470232215011, 0.021993776251263294, 0.018270143590775709
1491754483.6376081, 0.11558045416799151, 0.24617198948380473, 0.90699964027645574, -0.99797371198825102, -0.057805853777115931, 0.023452254927959146, 0.012527776669626085
1491754483.6711242, 0.12061936357293726, 0.22804317330440471, 0.91115901465175597, -0.99760647683733661, -0.059069968339570816, 0.024873628673325793, 0.025949158159373004
1491754483.7046511, 0.11022461066537834, 0.23390010140956832, 0.91084717229367274, -0.99761419465538914, -0.06159496879233093, 0.01852812466860803, 0.025073632321937114
1491754483.7381561, 0.11434428389225837, 0.24028331545018805, 0.91178923461320982, -0.99748424748780307, -0.063467542336532609, 0.020192896231212249, 0.024275378992867514
1491754484.0062952, 0.1134601109080749, 0.30028498845485208, 0.91669183839457735, -0.9955101713367166, -0.090037009522582728, -0.00023516350971529936, 0.029202403659551075
1491754484.0398111, 0.11090232069981602, 0.3099832640858336, 0.91631269337079446, -0.9956916426683915, -0.089226119305065243, -0.0038989483536078888, 0.024932921124777581
1491754484.0733271, 0.11097439234754555, 0.30801780891858138, 0.91980273922066014, -0.99541059157438772, -0.091758452504387786, -0.0065688133712494649, 0.026362687010645414
1491754484.106853, 0.11631317398988331, 0.29665655468677143, 0.92486561625469343, -0.99513079190781495, -0.092982509613409481, -0.0070362552976189225, 0.031928842984110167
1491754484.1404691, 0.12175877867581694, 0.31151314791317414, 0.91805612670937697, -0.99522494099518843, -0.094699450676561145, -0.0061950271490598162, 0.022824383919469195
1491754484.173985, 0.13201721702312805, 0.30807907283621833, 0.91836985956852024, -0.99519961223786124, -0.094799461392003181, -0.0045876609564616515, 0.023869379722675253
1491754484.2075009, 0.11586570149753406, 0.32106176822218818, 0.9129536252523287, -0.99509482599103416, -0.096658591064022928, -0.015119807261745367, 0.014655902829890316
1491754484.2410722, 0.12809073800586532, 0.28944276897347687, 0.92276121210009465, -0.99462443113021282, -0.097935926925017777, -0.011959162409045602, 0.031428866519684372
1491754484.2746029, 0.12754470904957455, 0.31423525279673126, 0.91647885141438812, -0.99493065997454599, -0.098302552853599859, -0.012245359857721891, 0.017310144627779408
1491754484.3082211, 0.12922921309562882, 0.30704386410326373, 0.91276283675825109, -0.99477885746803463, -0.098952297259569152, -0.012594665799083266, 0.021560194689630306
1491754484.3417373, 0.1389847227679559, 0.28977324426221385, 0.91392202172872494, -0.99443540969540367, -0.09938766154272477, -0.0082442619394456334, 0.033946145909030556
1491754484.37535, 0.14910636838454283, 0.28248950679924156, 0.91014721912463015, -0.99442335100978607, -0.096320739053421006, -0.0030384471079328741, 0.042840191804460234
1491754484.4088659, 0.14339591187325779, 0.29849246910611676, 0.9121403286544284, -0.99516400398115445, -0.090810726890404744, -0.003874331954252136, 0.037242537692016346
1491754484.4423821, 0.15713257386756463, 0.2937491844640937, 0.91474755201087921, -0.99558301431751495, -0.083712233743152495, 0.0056420847311779588, 0.04212944818139587
1491754484.475898, 0.13754832296158004, 0.29167607688395902, 0.90728605019426645, -0.99581275876882069, -0.081400977714468234, -0.002832671578887779, 0.041506701532226818
1491754484.5093172, 0.13869369741295898, 0.28646292005172369, 0.90922952407202373, -0.99617940546480355, -0.076301644423371173, -0.0014014902316147459, 0.042458061792912685
1491754484.5428331, 0.15382161429390773, 0.25368123073972032, 0.91019909695439938, -0.99584270469317693, -0.070487809365851084, 0.0062939781809075697, 0.057351216890662353
1491754484.5763471, 0.14532704286980586, 0.29232060373457325, 0.90070410253994537, -0.99699359020591261, -0.07003888948678165, 0.004088008337249021, 0.032888040920945771
1491754484.6098011, 0.129825385726276, 0.27148182574351259, 0.89894333807599436, -0.9968404084664988, -0.067714882190097969, -0.0055667124881123029, 0.041144944894842023